www.pogodaiklimat.ru

ПОГОДА в Падьюке, KY

  • Прогноз погоды в Падьюке
  • Монитор погоды в Падьюке
  • Климат в Падьюке

АРХИВ ПОГОДЫ в Падьюке

Время (UTC), дата Ветер
(напр.,м/с)
 
Видим.   Явления Облачность Т
(С)
Тd
(С)
f
(%)
Тe
(С)
Тes
(С)
Комфортность

P
(гПа)

Po
(гПа)
Тmin
(С)
Tmax
(С)
R
(мм)
SD
(см)
14:44 18.06 Ю  16 км    10/10 780 м  +24.4  +20.6  79  +30  +30  очень
душно 
  998.5         
14:53 18.06   16 км    10/10 840 м  +24.4  +20.6  79  +30  +30  очень
душно 
1013.0  998.5         
15:03 18.06 ЮЗ  16 км    10/10 480 м  +24.4  +20.6  79  +30  +30  очень
душно 
  998.5         
15:53 18.06 Ю  16 км    10/10 570 м  +26.1  +20.6  72  +33  +33  очень
душно 
1012.7  998.2         
16:53 18.06 Ю  16 км    5/5 720 м  +27.8  +21.1  67  +35  +43  очень
душно 
1012.1  997.5  +21.7  +27.8     
17:27 18.06 З  16 км    8/8 840 м  +28.9  +20.0  59  +35  +39  очень
душно 
  997.2         
17:39 18.06 ЮЗ  16 км    5/5 870 м  +28.3  +20.0  61  +35  +44  очень
душно 
  996.8         
17:53 18.06 Ю  16 км    5/5 870 м  +28.9  +20.0  59  +35  +47  очень
душно 
1011.2  996.8         
18:53 18.06 Ю  16 км    2/2 1170 м  +29.4  +19.4  55  +35  +52  опасность
солнечного
удара 
1010.6  996.2         
19:53 18.06 Ю  16 км    2/2 1140 м  +29.4  +20.0  57  +36  +50  очень
душно 
1010.0  995.5         
20:53 18.06 ЮЗ  16 км    8/8 1170 м  +28.9  +20.0  59  +35  +37  очень
душно 
1009.4  995.2         
21:53 18.06 ЮЗ  16 км    8/0 3300 м
[средняя] 
+28.3  +20.0  61  +35  +37  очень
душно 
1008.9  994.5         
22:53 18.06 ЮЗ  16 км    ясно  +28.3  +20.6  63  +35  +39  очень
душно 
1008.7  994.2  +27.8  +30.6     
23:53 18.06 ЮЗ  16 км    ясно  +26.7  +21.7  74  +34  +35  очень
душно 
1008.9  994.5         
00:53 19.06 ЮЗ  16 км    ясно  +25.0  +21.7  82  +32  +32  очень
душно 
1009.3  994.8         
01:53 19.06   16 км    ясно  +24.4  +20.6  79  +30  +30  очень
душно 
1009.6  995.2         
02:53 19.06 З  14 км    10/0 3000 м
[средняя] 
+23.9  +20.6  82  +30  +30  очень
душно 
1010.1  995.5         
03:53 19.06 ЮЗ  16 км    10/0 3300 м
[средняя] 
+23.3  +20.6  85  +31  +31  очень
душно 
1009.9  995.5         
04:53 19.06 ЮЗ  16 км    5/0 3300 м
[средняя] 
+22.8  +20.0  84  +29  +29  очень
душно 
1009.4  995.2  +22.8  +28.3     
05:53 19.06 ЮЗ  14 км    ясно  +21.7  +20.0  90  +27  +27  душно  1008.6  994.2         
06:53 19.06   16 км    ясно  +21.7  +19.4  87  +27  +27  душно  1008.2  993.8         
07:53 19.06   16 км    5/2 1440 м
[средняя] 
+21.1  +18.9  87  +25  +25  комфорт  1008.2  993.8         
08:53 19.06   16 км    8/8 1800 м  +21.1  +19.4  90  +26  +26  душно  1007.9  993.5         
09:53 19.06 Ю  16 км    2/0 2850 м
[средняя] 
+21.7  +19.4  87  +27  +27  душно  1007.4  992.8         
10:53 19.06 ЮЗ  16 км    ясно  +23.3  +20.0  82  +30  +30  очень
душно 
1007.5  993.2  +20.6  +23.3     
11:53 19.06 нст  16 км    ясно  +25.0  +21.1  79  +32  +33  очень
душно 
1007.9  993.5         
12:53 19.06 Ю  16 км    ясно  +26.7  +21.1  71  +34  +36  очень
душно 
1008.2  993.8         
13:53 19.06 ЮЗ  16 км    ясно  +27.8  +21.1  67  +35  +41  очень
душно 
1007.7  993.2         
14:53 19.06 нст  16 км    5/5 870 м  +28.3  +20.6  63  +35  +40  очень
душно 
1007.4  992.8         
15:53 19.06 ЮЗ  6
{10} 
16 км    8/8 1080 м  +28.9  +21.1  63  +36  +37  очень
душно 
1006.5  992.2         
16:53 19.06 ЮЗ  16 км    ясно  +29.4  +21.7  63  +37  +51  опасность
солнечного
удара 
1005.5    +23.3  +29.4     
17:53 19.06 ЮЗ  16 км    2/2 1020 м  +30.6  +22.2  61  +40  +48  очень
душно 
1004.6  990.2         
18:30 19.06 ЮЗ  3 км  сильный дождь  8/8 1080 м  +27.8  +21.7  69  +36  +39  очень
душно 
  989.8         
18:38 19.06 Ю  6 км  слабый дождь  8/8 630 м  +27.2  +21.7  72  +35  +38  очень
душно 
  989.5         
18:53 19.06 ЮЗ  16 км  гроза  5/5 630 м  +26.7  +22.2  76  +35  +43  очень
душно 
1004.1           
19:18 19.06 З  11
{17} 
2 км  гроза со слабым дождем  8/8 420 м  +22.2  +19.4  84  +28  +28  душно             
19:24 19.06 З  6
{17} 
400 м  гроза с сильным дождем, туман  10/10 510 м  +21.1  +19.4  90  +26  +26  душно             
19:28 19.06 З  6
{14} 
800 м  гроза с сильным дождем, туман  10/10 660 м  +21.1  +19.4  90  +26  +26  душно             
19:33 19.06 З  2 км  гроза, сильный дождь, дымка  10/10 900 м  +21.1  +19.4  90  +26  +26  душно             
19:43 19.06 З  5 км  гроза, слабый дождь, дымка  10/5 840 м
[средняя] 
+21.7  +19.4  87  +27  +28  душно    990.8         
19:53 19.06 ЮЗ  5
{10} 
13 км  гроза, слабый дождь  10/2 1230 м
[средняя] 
+21.7  +20.0  90  +27  +29  душно  1005.1  990.8      15.0   
20:23 19.06 нст  16 км    8/2 1380 м
[средняя] 
+22.8  +20.6  87  +30  +35  очень
душно 
           
20:51 19.06 СЗ  14 км  гроза  10/8 180 м
[средняя] 
+22.0  +20.0  88  +28  +28  душно             
20:53 19.06 СЗ  6 км  гроза, слабый дождь, дымка  10/8 180 м
[средняя] 
+22.2  +20.6  91  +29  +29  очень
душно 
1005.8  991.5         
20:55 19.06 С  4 км  гроза со слабым дождем, дымка  10/10 180 м  +22.2  +20.6  91  +29  +29  очень
душно 
  990.8         
21:02 19.06 нст  3
{9} 
1 км  гроза с сильным дождем, дымка  10/10 180 м  +22.2  +20.6  91  +29  +29  очень
душно 
  991.2         
21:12 19.06 ЮЗ  3 км  гроза, дождь, дымка  8/8 210 м
[средняя] 
+21.7  +20.0  90  +27  +28  душно    990.5         
21:20 19.06   13 км  гроза, слабый дождь  8/5 210 м
[средняя] 
+22.2  +19.4  84  +28  +31  душно    990.5         

 

Местоположение метеостанции Barkley Regional Airport: широта 37.0564 долгота -88.7739 высота над уровнем моря 125 м.

В архиве по умолчанию представлена погода в Падьюке за последние 1-2 суток. Обновление информации о фактической погоде в базе происходит ежечасно! Архивные данные за месяц целиком и за предыдущие месяцы Вы можете получить, выбрав интересующий диапазон дат из раскрывающегося списка и нажав кнопку "Ввод!".

Внимание! Архив погоды МЕТАР в базе сайта хранится не более 60 дней. Нет смысла пытаться выбрать более раннюю дату.

Внимание! Время в таблицах - всемирное. Для получения местного времени необходимо прибавить поправку, которая в Падьюке равна -6 ч.

Ветер - указаны скорость ветра в м/с и направление, откуда дует ветер: С - северный, СВ - северо-восточный, В - восточный, ЮВ - юго-восточный, Ю - южный, ЮЗ - юго-западный, З - западный, СЗ - северо-западный.
Видимость - горизонтальная дальность видимости в метрах или километрах. При видимости от 1 до 10 км при отсутствии осадков обычно наблюдается дымка, при ухудшении видимости до 1 км и менее - туман. В сухую погоду видимость может ухудшаться дымом, пылью или мглою.
Атмосферные явления - указаны явления, наблюдавшиеся в указанный момент времени.
Облачность - указаны через наклонную черту верхняя и нижняя облачность в баллах и высота нижней границы облаков в метрах. Внимание: облачность, как и прочие метеорологические величины в США измеряются автоматическими метеостанциями. Указанные значения в баллах носят условный характер и показывают процент времени, в течение которого, в среднем, лазерный луч высотомера отражался от облаков обратно.
T - Температура воздуха - температура, измеренная на высоте 2 м над землей.
Td - Температура точки росы - температура, при понижении до которой содержащийся в воздухе водяной пар достигнет насыщения.
f - Относительная влажность воздуха - влажноcть воздуха, измеренная на высоте 2 м над землей.
Te - Эффективная температура - температура, которую ощущает одетый по сезону человек в тени. Характеристика душности погоды. При расчете учитывается влияние влажности воздуха и скорости ветра на теплоощущения человека.
Tes - Эффективная температура на солнце - температура, которую ощущает человек, с поправкой на солнечный нагрев. Характеристика знойности погоды. Зависит от высоты солнца над горизонтом, облачности и скорости ветра. Ночью, в пасмурную погоду, а также при ветре 12 м/с и более поправка равна нулю.
P - Атмосферное давление - приведенное к уровню моря атмосферное давление.
Po - Атмосферное давление - измеренное на уровне метеостанции атмосферное давление.
Tmin - Минимальная температура - минимум температуры воздуха на высоте 2 м над землей.
Tmax - Максимальная температура - максимум температуры воздуха на высоте 2 м над землей.
R - Количество осадков - Количество выпавших осадков за 3 или 6 часов, мм.
SD - Снежный покров - Высота снежного покрова, см.